Flag for U.S.A. Weather past 2 weeks in Sunnyvale, California, U.S.A.

Now
62 °F

Sunny.


Feels Like: 62 °F
Forecast: 44 / 58 °F
Wind: 9 mph from North

Location: Moffett Field

Current Time: Mar 1, 2015 at 6:09:40 PM

Latest Report: Mar 1, 2015 at 4:56 PM


Visibility: 10 mi

Pressure: 29.92 "Hg

Humidity: 41%

Dew point: 38 °F

Location of SunnyvaleLocation

Historic Weather in Sunnyvale — Graph

°F

Sunnyvale temperature yesterday

Maximum temperature yesterday: 59 °F (at 2:56 PM)
Minimum temperature yesterday: 46 °F (at 4:56 AM)
Average temperature yesterday: 52 °F

Past Weeks' High & Low Weather Summary

 TemperatureHumidityPressure
High74 °F (Feb 15, 2:56 PM)97% (Mar 1, 3:56 AM)30.38 "Hg (Mar 1, 3:56 AM)
Low38 °F (Feb 24, 6:56 AM)17% (Feb 24, 11:56 AM)29.75 "Hg (Feb 28, 3:56 AM)
Average56 °F66%30.04 "Hg
* Reported Feb 14 4:56 PM — Mar 1 4:56 PM, Sunnyvale, Weather by CustomWeather, © 2015

Note: Actual official high and low records may vary slightly from our data, if they occured in-between our weather recording intervals... More about our weather records

Advertising

Sunnyvale weather history for previous 24 hours

 ConditionsComfort  
Time TempWeatherWind HumidityBarometerVisibility
4:56 PM
Sun, Mar 1
62 °FSunny.9 mph41%29.92 "Hg10 mi
3:56 PM63 °FSunny.6 mph38%29.93 "Hg10 mi
2:56 PM63 °FSunny.7 mph40%29.93 "Hg10 mi
1:56 PM62 °FSunny.5 mph38%29.94 "Hg10 mi
12:56 PM61 °FSunny.No wind39%29.97 "Hg10 mi
11:56 AM58 °FSunny.No wind44%29.99 "Hg10 mi
10:56 AM58 °FSunny.3 mph44%30.01 "Hg10 mi
9:56 AM55 °FSunny.7 mph55%30.01 "Hg10 mi
8:56 AM52 °FSunny.6 mph72%30.01 "Hg10 mi
7:56 AM47 °FSunny.No wind97%30.00 "Hg10 mi
6:56 AM41 °FSunny.No wind96%29.99 "Hg10 mi
5:56 AM40 °FClear.3 mph97%29.98 "Hg10 mi
4:56 AM42 °FPassing clouds.5 mph92%29.97 "Hg10 mi
3:56 AM43 °FClear.No wind97%29.96 "Hg10 mi
2:56 AM45 °FClear.No wind93%29.96 "Hg10 mi
1:56 AM44 °FClear.3 mph89%29.96 "Hg10 mi
12:56 AM46 °FClear.No wind89%29.95 "Hg10 mi
11:56 PM
Sat, Feb 28
47 °FClear.No wind86%29.94 "Hg10 mi
10:56 PM48 °FClear.No wind86%29.93 "Hg10 mi
9:56 PM50 °FClear.No wind86%29.92 "Hg10 mi
8:56 PM51 °FClear.3 mph80%29.90 "Hg10 mi
7:56 PM51 °FMostly cloudy.No wind80%29.89 "Hg10 mi
6:56 PM50 °FPassing clouds.No wind80%29.86 "Hg10 mi
Weather by CustomWeather, © 2015

See weather overviewHow to use our weather pages